Location: Unspecified
(40.7945°N, 111.1337°W)
Time: 06:19:14
(UTC-06:00)

Okean 3 - Pass Details

Date: 24 March 2019
Orbit: 576 x 602 km, 82.5° (Epoch: 23 April)

Event Time Altitude Azimuth Distance (km) Brightness Sun altitude
Exits shadow 05:45:29 - 178° (S) 2,762 6.7 -18.7°
Reaches altitude 10° 05:47:32 10° 176° (S) 1,931 5.9 -18.3°
Maximum altitude 05:51:45 64° 95° (E) 670 3.9 -17.5°
Drops below altitude 10° 05:56:01 10° 14° (NNE) 1,950 6.5 -16.8°
Sets 05:58:15 0° 12° (NNE) 2,858 7.4 -16.4°
